Dauntless Aviation
Greetings, Guest! To participate, [sign up for a free account] or [log in]
Airports Europe Germany
EDSW

Altdorf-Wallburg

Altdorf-Wallburg, GERMANY

Airport Info
Edit

Location

Latitude / Longitude: 48°16'11"N / 7°50'31"E
  48°16.188'N / 7°50.532'E
  48.2698 / 7.8422
Satellite photo at:
Airport distance calculator
From:
Weather Reports

METAR

LFST
18.2nm NW
LFST 230030Z AUTO 16005KT 9999 OVC028 05/02 Q1027
EDSB
32.3nm N
EDSB 230020Z 21010KT 9999 BKN021 06/01 Q1027

TAF

EDTL
5.8nm NW
TAF EDTL 221700Z 2218/2224 21010KT 9999 SCT030
LFST
18.2nm NW
TAF LFST 222300Z 2300/2324 18008KT 9999 BKN025 PROB30 TEMPO 2303/2309 4000 BR BKN014 BECMG 2309/2312 VRB03KT CAVOK PROB40 TEMPO 2321/2324 5000 MIFG
EDSB
32.3nm N
TAF EDSB 221700Z 2218/2318 22015G25KT 9999 BKN030 BECMG 2300/2303 21012KT
Safelog

 

Dauntless Aviation

© 2007-2014 Dauntless Aviation, all rights reserved
Information provided via PilotNav comes from a variety of official and unofficial data sources. As errors are possible, do not use PilotNav for primary flight planning purposes. Verify any information that you receive via PilotNav with current and canonical charts and other official documents. The material in this database is subject to database copyrights held by Dauntless Aviation and may not be copied without the express permission of Dauntless Aviation - licenses for use of part of all of this data are available for purchase; enquire via the Dauntless Aviation helpdesk. A number of mechanisms and markers exist in the database to protect against and identify infringement / copyright. Automated queries against this website are stictly prohibited, and all activity is logged and analyzed.